Weather History for YPAD - May, 2013

Change the Weather History Date:

Monday, May 27, 2013

  Actual Average Record
Temperature  
Mean Temperature 56 °F -  
Max Temperature 64 °F 61 °F - ()
Min Temperature 47 °F 45 °F - ()
Degree Days  
Heating Degree Days 10    
Growing Degree Days 6 (Base 50)    
Moisture  
Dew Point 46 °F    
Average Humidity 70    
Maximum Humidity 93    
Minimum Humidity 41    
Precipitation  
Precipitation 0.00 in 0.07 in - ()
Sea Level Pressure  
Sea Level Pressure 30.35 in    
Wind  
Wind Speed 5 mph ()    
Max Wind Speed 16 mph    
Max Gust Speed -    
Visibility 8.7 miles    
Events      
T = Trace of Precipitation, MM = Missing Value Source: Averaged Metar Reports

Daily Weather History Graph

Daily Weather History Graph

Search for Another Location

Airport or City:

Trip Planner

Search our weather history database for the weather conditions in past years. The results will help you decide how hot, cold, wet, or windy it might be!

Date:

Astronomy

May. 27, 2013 Rise Set
Actual Time 7:11 AM ACST 5:14 PM ACST
Civil Twilight 6:44 AM ACST 5:41 PM ACST
Nautical Twilight 6:12 AM ACST 6:12 PM ACST
Astronomical Twilight 5:42 AM ACST 6:43 PM ACST
Moon 7:33 PM ACST (5/27) 8:59 AM ACST (5/27)
Length of Visible Light 10h 57m
Length of Day
10h 02m
Waning Gibbous, 94% of the Moon is Illuminated
May 27
Waning Gibbous
Jun 1
Last Quarter
Jun 9
New
Jun 17
First Quarter
Jun 23
Full

Hourly Weather History & Observations

Time (ACST) Temp. Dew Point Humidity Pressure Visibility Wind Dir Wind Speed Gust Speed Precip Events Conditions
12:00 AM 51 °F 45 °F 74% 30.39 in 19 mi North 2.3 mph - -   Partly Cloudy
12:00 AM 51.8 °F 44.6 °F 76% 30.39 in - North 2.3 mph - N/A   Clear
12:30 AM 52 °F 47 °F 76% 30.40 in - NW 4.6 mph - -  
12:30 AM 51.8 °F 46.4 °F 82% 30.39 in - NW 4.6 mph - N/A   Clear
1:00 AM 51.8 °F 46.4 °F 82% 30.39 in - NNW 1.2 mph - N/A   Clear
1:30 AM 51.8 °F 46.4 °F 82% 30.39 in - East 4.6 mph - N/A   Clear
2:00 AM 51.8 °F 46.4 °F 82% 30.39 in - Calm Calm - N/A   Clear
2:30 AM 50.0 °F 46.4 °F 87% 30.39 in - Calm Calm - N/A   Clear
3:00 AM 49 °F 46 °F 87% 30.40 in 19 mi ENE 3.5 mph - -   Partly Cloudy
3:00 AM 50.0 °F 46.4 °F 87% 30.39 in - ENE 3.5 mph - N/A   Clear
3:30 AM 49 °F 46 °F 85% 30.38 in - East 4.6 mph - -  
3:30 AM 48.2 °F 46.4 °F 93% 30.36 in - East 4.6 mph - N/A   Clear
4:00 AM 50.0 °F 46.4 °F 87% 30.36 in - Calm Calm - N/A   Clear
4:30 AM 50.0 °F 46.4 °F 87% 30.39 in - Calm Calm - N/A   Clear
5:00 AM 48.2 °F 46.4 °F 93% 30.36 in - Calm Calm - N/A   Clear
5:30 AM 50.0 °F 46.4 °F 87% 30.39 in - NE 1.2 mph - N/A   Clear
6:00 AM 50 °F 46 °F 82% 30.40 in 19 mi Calm Calm - -   Partly Cloudy
6:00 AM 50.0 °F 46.4 °F 87% 30.39 in - Calm Calm - N/A   Clear
6:30 AM 49 °F 46 °F 86% 30.41 in - Calm Calm - -  
6:30 AM 50.0 °F 46.4 °F 87% 30.39 in - Calm Calm - N/A   Clear
7:00 AM 48.2 °F 44.6 °F 87% 30.39 in - Calm Calm - N/A   Clear
7:30 AM 48.2 °F 44.6 °F 87% 30.39 in - East 2.3 mph - N/A   Clear
8:00 AM 48.2 °F 46.4 °F 93% 30.39 in - Calm Calm - N/A   Clear
8:30 AM 50.0 °F 46.4 °F 87% 30.42 in - NNE 5.8 mph - N/A   Clear
9:00 AM 56 °F 47 °F 62% 30.42 in 12 mi NNE 8.1 mph - -   Haze
9:00 AM 55.4 °F 46.4 °F 72% 30.42 in - NNE 8.1 mph - N/A   Clear
9:30 AM 58 °F 45 °F 51% 30.42 in - NNE 9.2 mph - -  
9:30 AM 57.2 °F 44.6 °F 63% 30.42 in - NNE 9.2 mph - N/A   Clear
10:00 AM 59.0 °F 46.4 °F 63% 30.42 in - NNE 10.4 mph - N/A   Clear
10:30 AM 60.8 °F 42.8 °F 52% 30.39 in 6.2 mi NE 13.8 mph - N/A   Mostly Cloudy
11:00 AM 60.8 °F 44.6 °F 55% 30.39 in 6.2 mi NE 16.1 mph - N/A   Mostly Cloudy
11:30 AM 62.6 °F 42.8 °F 48% 30.39 in 6.2 mi NE 13.8 mph - N/A   Mostly Cloudy
12:00 PM 62 °F 44 °F 41% 30.38 in 22 mi NE 12.7 mph - -   Partly Cloudy
12:00 PM 62.6 °F 44.6 °F 52% 30.36 in 6.2 mi NE 12.7 mph - N/A   Scattered Clouds
12:30 PM 61 °F 44 °F 43% 30.37 in - NE 12.7 mph - -  
12:30 PM 60.8 °F 44.6 °F 55% 30.36 in 6.2 mi NE 12.7 mph - N/A   Scattered Clouds
1:00 PM 62.6 °F 42.8 °F 48% 30.33 in 6.2 mi ENE 10.4 mph - N/A   Scattered Clouds
1:30 PM 62.6 °F 44.6 °F 52% 30.33 in 6.2 mi NE 8.1 mph - N/A   Scattered Clouds
2:00 PM 64.4 °F 44.6 °F 49% 30.33 in 6.2 mi NNE 8.1 mph - N/A   Mostly Cloudy
2:30 PM 62.6 °F 46.4 °F 55% 30.30 in 6.2 mi NE 5.8 mph - N/A   Mostly Cloudy
3:00 PM 62 °F 47 °F 48% 30.32 in 19 mi North 6.9 mph - -   Partly Cloudy
3:00 PM 62.6 °F 46.4 °F 55% 30.30 in 6.2 mi North 6.9 mph - N/A   Mostly Cloudy
3:30 PM 62 °F 46 °F 44% 30.32 in - NNW 9.2 mph - -  
3:30 PM 62.6 °F 46.4 °F 55% 30.30 in 6.2 mi NNW 9.2 mph - N/A   Mostly Cloudy
4:00 PM 60.8 °F 46.4 °F 59% 30.30 in 6.2 mi North 6.9 mph - N/A   Mostly Cloudy
4:30 PM 60.8 °F 46.4 °F 59% 30.30 in 6.2 mi NE 5.8 mph - N/A   Mostly Cloudy
5:00 PM 60.8 °F 46.4 °F 59% 30.30 in 6.2 mi NE 6.9 mph - N/A   Mostly Cloudy
5:30 PM 57.2 °F 46.4 °F 67% 30.30 in 6.2 mi NNE 6.9 mph - N/A   Mostly Cloudy
6:00 PM 56 °F 47 °F 63% 30.31 in 22 mi ENE 5.8 mph - -   Partly Cloudy
6:00 PM 55.4 °F 46.4 °F 72% 30.30 in 6.2 mi ENE 5.8 mph - N/A   Mostly Cloudy
6:30 PM 57 °F 47 °F 59% 30.31 in - NE 8.1 mph - -  
6:30 PM 57.2 °F 46.4 °F 67% 30.30 in 6.2 mi NE 8.1 mph - N/A   Mostly Cloudy
7:00 PM 55.4 °F 46.4 °F 72% 30.30 in 6.2 mi NE 5.8 mph - N/A   Mostly Cloudy
7:30 PM 53.6 °F 46.4 °F 77% 30.30 in - NE 5.8 mph - N/A   Clear
8:00 PM 53.6 °F 46.4 °F 77% 30.30 in - ENE 4.6 mph - N/A   Clear
8:30 PM 55.4 °F 46.4 °F 72% 30.30 in - East 9.2 mph - N/A   Clear
9:00 PM 55 °F 46 °F 63% 30.32 in 22 mi East 5.8 mph - -   Partly Cloudy
9:00 PM 55.4 °F 46.4 °F 72% 30.30 in - East 5.8 mph - N/A   Clear
9:30 PM 54 °F 46 °F 66% 30.32 in - East 8.1 mph - -  
9:30 PM 53.6 °F 46.4 °F 77% 30.30 in - East 8.1 mph - N/A   Clear
10:00 PM 53.6 °F 46.4 °F 77% 30.30 in - ENE 4.6 mph - N/A   Clear
10:30 PM 53.6 °F 46.4 °F 77% 30.30 in - NE 5.8 mph - N/A   Clear
11:00 PM 51.8 °F 44.6 °F 76% 30.30 in - NE 8.1 mph - N/A   Clear
11:30 PM 51.8 °F 44.6 °F 76% 30.30 in - NNE 8.1 mph - N/A   Clear